Regional Weather Roundup
Issued by NWS Sioux Falls, SD

Home | Current Version | Previous Version | Graphics & Text | Print | Product List | Glossary Off
Versions: 1 2 3 4 5 6 7 8 9 10 11 12 13 14 15 16 17 18 19 20 21 22 23 24 25 26 27 28 29 30 31 32 33 34 35 36 37 38 39 40 41 42 43 44 45 46 47 48 49 50

000
ASUS43 KFSD 280902
RWRFSD

WEATHER ROUNDUP FOR SE SOUTH DAKOTA/SW MINNESOTA/NW IOWA
NATIONAL WEATHER SERVICE SIOUX FALLS SD
400 AM CDT FRI AUG 28 2015

NOTE: "FAIR" INDICATES FEW OR NO CLOUDS BELOW 12,000 FEET WITH NO
SIGNIFICANT WEATHER AND OR OBSTRUCTIONS TO VISIBILITY.


SDZ038>040-050-052>070-281000-
SOUTHEAST SOUTH DAKOTA

CITY           SKY/WX    TMP DP  RH WIND       PRES   REMARKS
BROOKINGS      CLOUDY    64  61  88 SE9       29.96R
CHAMBERLAIN    RAIN      65  65  99 E6        29.90S
HURON          CLOUDY    67  65  93 E5        29.92R
MADISON        LGT RAIN  64  64 100 SE7       29.94F
MITCHELL       CLOUDY    67  66  97 E7        29.90F
SIOUX FALLS    CLOUDY    65  63  93 SE13      29.91F
WINNER         LGT RAIN  68  66  93 E7        29.88F
YANKTON        CLOUDY    64  63  94 E9        29.85S
$$

MNZ071-072-080-081-089-090-097-098-281000-
SOUTHWEST MINNESOTA

CITY           SKY/WX    TMP DP  RH WIND       PRES   REMARKS
FAIRMONT       CLOUDY    63  57  82 SE7       30.00S
JACKSON        CLOUDY    63  63 100 SE12      29.99F
LUVERNE        CLOUDY    64  61  88 SE8       29.94R
MARSHALL       CLOUDY    64  59  82 S12       29.96R
MONTEVIDEO     PTCLDY    61  61 100 S3        29.97R
PIPESTONE      CLOUDY    64  63  94 S7        29.95S
REDWOOD FALLS  CLOUDY    62  61  96 SE5       29.97R
TRACY          CLOUDY    65  63  91 S6        29.96S
WINDOM         CLOUDY    64  61  88 SE13      29.98S
WORTHINGTON    CLOUDY    63  57  82 SE9       29.96S
$$

IAZ001>003-012>014-020>022-031-032-NEZ013-014-SDZ071-281000-
NORTHWEST IOWA

CITY           SKY/WX    TMP DP  RH WIND       PRES   REMARKS
DENISON        LGT RAIN  64  63  94 SE14      29.90F
ESTHERVILLE    LGT RAIN  62  61  96 SE9       29.99F
SIOUX CITY     RAIN      67  63  87 E18G28    29.84F FOG
SPENCER        LGT RAIN  64  61  90 SE16      29.95F
$$

ABBREVIATIONS USED IN REMARKS
   TC - TEMPERATURE IN CELSIUS
  WCI - WIND CHILL INDEX
   HX - HEAT INDEX
  VSB - VISIBILITY



USA.gov is the U.S. government's official web portal to all federal, state and local government web resources and services.